| time (UTC) | temp F | wind direction | speed MPH | gust MPH | rain 1hr in | rain 24hr in | rain mn in | humidity % | barometer mb |
| 20260506134538 | 55 | 277 | 0.0 | 2.0 | 0.00 | 0.00 | 0.00 | 89 | 1019.3 |
| 20260506133038 | 55 | 275 | 1.0 | 3.0 | 0.00 | 0.00 | 0.00 | 89 | 1019.2 |
| 20260506131540 | 55 | 295 | 0.0 | 5.0 | 0.00 | 0.00 | 0.00 | 89 | 1019.3 |
| 20260506130034 | 55 | 293 | 0.0 | 0.0 | 0.00 | 0.00 | 0.00 | 89 | 1019.1 |
| 20260506124533 | 55 | 277 | 0.0 | 1.0 | 0.00 | 0.00 | 0.00 | 88 | 1018.9 |
| 20260506123033 | 55 | 289 | 0.0 | 2.0 | 0.00 | 0.00 | 0.00 | 88 | 1019.0 |
| 20260506121532 | 55 | 276 | 0.0 | 3.0 | 0.00 | 0.00 | 0.00 | 88 | 1018.8 |
| 20260506120034 | 55 | 285 | 1.0 | 3.0 | 0.00 | 0.00 | 0.00 | 88 | 1018.8 |
| 20260506114530 | 55 | 280 | 1.0 | 3.0 | 0.00 | 0.00 | 0.00 | 88 | 1018.8 |
| 20260506113037 | 55 | 281 | 0.0 | 1.0 | 0.00 | 0.00 | 0.00 | 87 | 1018.5 |
| 20260506111528 | 55 | 281 | 0.0 | 3.0 | 0.00 | 0.00 | 0.00 | 86 | 1018.4 |
| 20260506110025 | 55 | 270 | 1.0 | 3.0 | 0.00 | 0.00 | 0.00 | 86 | 1018.3 |
| 20260506104525 | 55 | 270 | 0.0 | 2.0 | 0.00 | 0.00 | 0.00 | 86 | 1018.2 |
| 20260506103026 | 55 | 293 | 0.0 | 2.0 | 0.00 | 0.00 | 0.00 | 86 | 1018.2 |
| 20260506101523 | 55 | 290 | 1.0 | 3.0 | 0.00 | 0.00 | 0.00 | 86 | 1018.1 |
| 20260506100022 | 55 | 279 | 1.0 | 2.0 | 0.00 | 0.00 | 0.00 | 86 | 1018.1 |
| 20260506094522 | 55 | 294 | 0.0 | 1.0 | 0.00 | 0.00 | 0.00 | 86 | 1018.2 |
| 20260506093020 | 55 | 303 | 1.0 | 3.0 | 0.00 | 0.00 | 0.00 | 85 | 1018.2 |
| 20260506091519 | 54 | 14 | 0.0 | 2.0 | 0.00 | 0.00 | 0.00 | 86 | 1018.2 |
| 20260506090022 | 54 | 275 | 0.0 | 1.0 | 0.00 | 0.00 | 0.00 | 86 | 1018.1 |
| 20260506084518 | 54 | 303 | 0.0 | 2.0 | 0.00 | 0.02 | 0.00 | 86 | 1018.2 |
| 20260506083017 | 54 | 291 | 0.0 | 3.0 | 0.00 | 0.02 | 0.00 | 86 | 1018.2 |
| 20260506081519 | 54 | 309 | 0.0 | 2.0 | 0.00 | 0.02 | 0.00 | 87 | 1018.2 |
| 20260506073009 | 53 | 277 | 0.0 | 2.0 | 0.00 | 0.05 | 0.00 | 89 | 1018.0 |
| 20260506071507 | 52 | 274 | 0.0 | 0.0 | 0.00 | 0.05 | 0.00 | 90 | 1017.9 |
| 20260506061501 | 52 | 297 | 1.0 | 2.0 | 0.00 | 0.06 | 0.05 | 90 | 1017.6 |
| 20260506050107 | 53 | 266 | 0.0 | 3.0 | 0.00 | 0.09 | 0.05 | 88 | 1017.2 |
| 20260506044555 | 54 | 267 | 1.0 | 3.0 | 0.00 | 0.15 | 0.05 | 88 | 1017.1 |
| 20260506043053 | 54 | 293 | 0.0 | 2.0 | 0.00 | 0.15 | 0.05 | 87 | 1017.0 |
| 20260506041551 | 55 | 302 | 1.0 | 3.0 | 0.00 | 0.15 | 0.05 | 87 | 1016.7 |
| 20260506040049 | 55 | 266 | 0.0 | 3.0 | 0.00 | 0.15 | 0.05 | 86 | 1016.4 |
| 20260506034559 | 56 | 290 | 1.0 | 3.0 | 0.00 | 0.17 | 0.05 | 84 | 1016.1 |
| 20260506033045 | 56 | 276 | 0.0 | 4.0 | 0.00 | 0.17 | 0.05 | 83 | 1015.8 |
| 20260506031544 | 57 | 291 | 0.0 | 4.0 | 0.00 | 0.17 | 0.05 | 83 | 1015.5 |
| 20260506030043 | 57 | 285 | 0.0 | 4.0 | 0.00 | 0.17 | 0.05 | 82 | 1015.4 |
| 20260506024557 | 58 | 276 | 1.0 | 4.0 | 0.00 | 0.17 | 0.05 | 81 | 1015.3 |
| 20260506023041 | 59 | 280 | 0.0 | 5.0 | 0.00 | 0.17 | 0.05 | 80 | 1015.3 |
| 20260506021540 | 59 | 289 | 1.0 | 6.0 | 0.00 | 0.17 | 0.05 | 80 | 1015.1 |
| 20260506020039 | 60 | 266 | 2.0 | 6.0 | 0.00 | 0.17 | 0.05 | 80 | 1014.8 |
| 20260506014538 | 61 | 293 | 1.0 | 8.0 | 0.00 | 0.17 | 0.05 | 79 | 1014.8 |
| 20260506013057 | 61 | 290 | 0.0 | 5.0 | 0.00 | 0.17 | 0.05 | 78 | 1014.8 |
| 20260506011542 | 61 | 360 | 3.0 | 7.0 | 0.00 | 0.17 | 0.05 | 77 | 1014.9 |
| 20260506010038 | 62 | 296 | 2.0 | 4.0 | 0.00 | 0.17 | 0.05 | 76 | 1014.8 |
| 20260506004536 | 63 | 324 | 1.0 | 7.0 | 0.00 | 0.17 | 0.05 | 77 | 1014.7 |
| 20260506003038 | 63 | 314 | 2.0 | 7.0 | 0.00 | 0.17 | 0.05 | 76 | 1014.6 |
| 20260506001538 | 62 | 266 | 1.0 | 12.0 | 0.00 | 0.17 | 0.05 | 77 | 1014.5 |
| 20260506000034 | 62 | 335 | 3.0 | 12.0 | 0.00 | 0.17 | 0.05 | 78 | 1014.5 |
| 20260505234537 | 61 | 302 | 5.0 | 10.0 | 0.00 | 0.17 | 0.05 | 77 | 1014.6 |
| 20260505233033 | 62 | 264 | 2.0 | 8.0 | 0.00 | 0.17 | 0.05 | 77 | 1014.5 |
| 20260505231536 | 62 | 293 | 2.0 | 9.0 | 0.00 | 0.17 | 0.05 | 77 | 1014.5 |
| 20260505230048 | 63 | 20 | 1.0 | 9.0 | 0.00 | 0.17 | 0.05 | 76 | 1014.5 |
| 20260505224531 | 64 | 274 | 1.0 | 5.0 | 0.00 | 0.17 | 0.05 | 74 | 1014.4 |
| 20260505223030 | 65 | 8 | 1.0 | 5.0 | 0.00 | 0.17 | 0.05 | 73 | 1014.4 |
| 20260505221534 | 66 | 56 | 1.0 | 5.0 | 0.00 | 0.17 | 0.05 | 72 | 1014.4 |
| 20260505220027 | 64 | 293 | 3.0 | 7.0 | 0.00 | 0.17 | 0.05 | 71 | 1014.5 |
| 20260505214527 | 64 | 251 | 1.0 | 6.0 | 0.00 | 0.17 | 0.05 | 72 | 1014.6 |
| 20260505213033 | 65 | 302 | 1.0 | 4.0 | 0.00 | 0.17 | 0.05 | 73 | 1014.7 |
| 20260505211523 | 63 | 290 | 5.0 | 10.0 | 0.00 | 0.17 | 0.05 | 72 | 1014.7 |
| 20260505210021 | 63 | 297 | 1.0 | 7.0 | 0.00 | 0.17 | 0.05 | 74 | 1014.8 |
| 20260505204520 | 63 | 290 | 2.0 | 7.0 | 0.00 | 0.17 | 0.05 | 74 | 1014.9 |
| 20260505203025 | 62 | 292 | 2.0 | 9.0 | 0.00 | 0.17 | 0.05 | 76 | 1014.9 |
| 20260505201519 | 62 | 267 | 0.0 | 3.0 | 0.00 | 0.17 | 0.05 | 77 | 1015.0 |
| 20260505200030 | 62 | 192 | 1.0 | 6.0 | 0.00 | 0.17 | 0.05 | 78 | 1015.1 |
| 20260505194518 | 62 | 288 | 4.0 | 7.0 | 0.00 | 0.17 | 0.05 | 77 | 1015.1 |
| 20260505193018 | 62 | 297 | 1.0 | 5.0 | 0.00 | 0.17 | 0.05 | 76 | 1015.1 |
| 20260505191515 | 62 | 293 | 3.0 | 8.0 | 0.00 | 0.17 | 0.05 | 75 | 1015.1 |
| 20260505190013 | 62 | 268 | 4.0 | 8.0 | 0.00 | 0.17 | 0.05 | 75 | 1014.9 |
| 20260505184517 | 61 | 302 | 3.0 | 12.0 | 0.00 | 0.17 | 0.05 | 75 | 1015.0 |
| 20260505183008 | 60 | 285 | 2.0 | 11.0 | 0.00 | 0.17 | 0.05 | 78 | 1015.0 |
| 20260505181506 | 59 | 224 | 2.0 | 10.0 | 0.00 | 0.17 | 0.05 | 80 | 1015.0 |
| 20260505180003 | 58 | 249 | 1.0 | 6.0 | 0.00 | 0.17 | 0.05 | 81 | 1015.1 |
| 20260505174502 | 58 | 9 | 2.0 | 8.0 | 0.00 | 0.17 | 0.05 | 81 | 1014.9 |
| 20260505173004 | 58 | 225 | 2.0 | 8.0 | 0.00 | 0.17 | 0.05 | 81 | 1014.7 |
| 20260505171559 | 58 | 290 | 4.0 | 7.0 | 0.00 | 0.17 | 0.05 | 83 | 1014.8 |
| 20260505170057 | 58 | 300 | 1.0 | 7.0 | 0.00 | 0.17 | 0.05 | 85 | 1014.7 |
| 20260505164601 | 56 | 278 | 1.0 | 6.0 | 0.00 | 0.17 | 0.05 | 88 | 1014.9 |
| 20260505163056 | 56 | 293 | 2.0 | 7.0 | 0.00 | 0.17 | 0.05 | 88 | 1014.8 |
| 20260505161550 | 56 | 254 | 1.0 | 5.0 | 0.00 | 0.17 | 0.05 | 89 | 1014.8 |
| 20260505153101 | 54 | 246 | 0.0 | 2.0 | 0.00 | 0.17 | 0.05 | 96 | 1014.4 |
| 20260505151553 | 54 | 258 | 0.0 | 1.0 | 0.00 | 0.17 | 0.05 | 97 | 1014.3 |